Chatham, MA

10:27 PM EST on December 11, 2019 (GMT -0500)
Chatham Municipal

Weather History for KCQX - October, 2019

Change the Weather History Date:

Thursday, October 3, 2019

  Actual Average Record
Temperature  
Mean Temperature 54 °F -  
Max Temperature 55 °F 62 °F 79 °F (2013)
Min Temperature 53 °F 48 °F 42 °F (1997)
Degree Days  
Heating Degree Days 11    
Growing Degree Days 4 (Base 50)    
Moisture  
Dew Point 44 °F    
Average Humidity 69    
Maximum Humidity 89    
Minimum Humidity 62    
Precipitation  
Precipitation 0.00 in - - ()
Sea Level Pressure  
Sea Level Pressure 30.12 in    
Wind  
Wind Speed 9 mph (ENE)    
Max Wind Speed 14 mph    
Max Gust Speed 23 mph    
Visibility 10 miles    
Events Rain    
Averages and records for this station are not official NWS values.
T = Trace of Precipitation, MM = Missing Value Source: NWS Daily Summary

Daily Weather History Graph

Daily Weather History Graph

Search for Another Location

Airport or City:

Astronomy

Oct. 03, 2019 Rise Set
Actual Time 6:38 AM EDT 6:18 PM EDT
Civil Twilight 6:10 AM EDT 6:46 PM EDT
Nautical Twilight 5:38 AM EDT 7:18 PM EDT
Astronomical Twilight 5:06 AM EDT 7:50 PM EDT
Moon 12:10 PM EDT (10/3) 9:51 PM EDT (10/3)
Length of Visible Light 12h 35m
Length of Day
11h 40m
Waxing Crescent, 29% of the Moon is Illuminated
Oct 3
Waxing Crescent
Oct 5
First Quarter
Oct 13
Full
Oct 21
Last Quarter
Oct 27
New

Hourly Weather History & Observations

Time (EDT) Temp. Dew Point Humidity Pressure Visibility Wind Dir Wind Speed Gust Speed Precip Events Conditions
12:52 AM 55.9 °F 46.9 °F 72% 30.06 in 10.0 mi NE 8.1 mph 19.6 mph N/A   Overcast
1:37 AM 55.0 °F 42.1 °F 62% 30.06 in 10.0 mi NNE 8.1 mph 16.1 mph N/A   Overcast
1:52 AM 55.0 °F 43.0 °F 64% 30.07 in 10.0 mi Variable 6.9 mph - N/A   Overcast
2:34 AM 55.0 °F 46.0 °F 72% 30.07 in 10.0 mi NE 9.2 mph 19.6 mph N/A   Overcast
2:52 AM 55.0 °F 45.0 °F 69% 30.08 in 10.0 mi NE 12.7 mph 20.7 mph N/A   Overcast
3:52 AM 54.0 °F 43.0 °F 66% 30.10 in 10.0 mi Variable 6.9 mph - N/A   Overcast
4:52 AM 54.0 °F 44.1 °F 69% 30.11 in 10.0 mi NE 11.5 mph 17.3 mph N/A   Overcast
5:00 AM 54.0 °F 44.1 °F 69% 30.11 in 10.0 mi NE 11.5 mph 18.4 mph N/A   Overcast
5:38 AM 54.0 °F 43.0 °F 66% 30.12 in 10.0 mi NE 11.5 mph 19.6 mph N/A   Overcast
5:52 AM 54.0 °F 43.0 °F 66% 30.13 in 10.0 mi NE 9.2 mph 20.7 mph N/A   Overcast
6:52 AM 53.1 °F 43.0 °F 69% 30.14 in 10.0 mi NE 13.8 mph 23.0 mph N/A   Mostly Cloudy
7:52 AM 53.1 °F 42.1 °F 66% 30.18 in 10.0 mi NE 6.9 mph - N/A   Partly Cloudy
8:52 AM 53.1 °F 42.1 °F 66% 30.20 in 10.0 mi NE 8.1 mph 16.1 mph N/A   Mostly Cloudy
9:52 AM 54.0 °F 41.0 °F 62% 30.18 in 10.0 mi ENE 13.8 mph 21.9 mph N/A   Mostly Cloudy
10:52 AM 54.0 °F 41.0 °F 62% 30.21 in 10.0 mi ENE 12.7 mph - N/A   Mostly Cloudy
11:52 AM 54.0 °F 41.0 °F 62% 30.20 in 10.0 mi NE 6.9 mph - N/A   Overcast
12:52 PM 53.1 °F 42.1 °F 66% 30.19 in 10.0 mi ENE 9.2 mph - 0.00 in Rain Light Rain
1:52 PM 53.1 °F 41.0 °F 64% 30.18 in 10.0 mi ENE 9.2 mph - 0.00 in   Mostly Cloudy
2:52 PM 53.1 °F 42.1 °F 66% 30.17 in 10.0 mi East 6.9 mph - 0.00 in   Overcast
3:32 PM 53.1 °F 42.1 °F 66% 30.15 in 10.0 mi East 5.8 mph - N/A   Overcast
3:52 PM 53.1 °F 42.1 °F 66% 30.16 in 10.0 mi East 5.8 mph - N/A   Overcast
4:28 PM 53.1 °F 41.0 °F 64% 30.15 in 10.0 mi East 8.1 mph - N/A   Overcast
4:52 PM 53.1 °F 42.1 °F 66% 30.14 in 10.0 mi East 10.4 mph - N/A   Overcast
5:52 PM 53.1 °F 44.1 °F 71% 30.13 in 10.0 mi ESE 5.8 mph - N/A   Overcast
6:52 PM 53.1 °F 44.1 °F 71% 30.11 in 10.0 mi East 6.9 mph - N/A   Overcast
8:52 PM 54.0 °F 46.9 °F 77% 30.09 in 10.0 mi ESE 8.1 mph - 0.00 in Rain Light Rain
9:52 PM 54.0 °F 48.0 °F 80% 30.09 in 10.0 mi SE 4.6 mph - 0.00 in Rain Light Rain
10:28 PM 54.0 °F 48.9 °F 83% 30.07 in 10.0 mi ESE 3.5 mph - 0.00 in   Overcast
10:52 PM 54.0 °F 48.9 °F 83% 30.06 in 10.0 mi SE 4.6 mph - 0.00 in Rain Light Rain
11:52 PM 53.1 °F 50.0 °F 89% 30.02 in 9.0 mi Variable 5.8 mph - 0.00 in   Overcast